Regional Weather Roundup
Issued by NWS

Home | Current Version | Previous Version | Graphics & Text | Print | Product List | Glossary On
Versions: 1 2 3 4 5 6 7 8 9 10 11 12 13 14 15 16 17 18 19 20 21 22 23 24 25 26 27 28 29 30 31 32 33 34 35 36 37 38 39 40 41 42 43 44 45 46 47 48 49 50
000
ASUS43 KTOP 190808
RWRKS

WEATHER ROUNDUP FOR KANSAS
NATIONAL WEATHER SERVICE GOODLAND KS
200 AM CST THU JAN 19 2017

NOTE:  "FAIR" INDICATES FEW OR NO CLOUDS BELOW 12,000 FEET WITH NO
SIGNIFICANT WEATHER AND/OR OBSTRUCTIONS TO VISIBILITY.

KSZ001>006-013>018-027>032-041>047-190900-
NORTHWEST KANSAS

CITY           SKY/WX    TMP DP  RH WIND       PRES   REMARKS
GOODLAND       CLEAR     29  25  85 S3        29.65F
HAYS           CLOUDY    44  42  93 S9        29.75F
HILL CITY      CLOUDY    43  43 100 S8        29.72F
RUSSELL        CLOUDY    45  43  93 S15       29.74F
$$

KSZ061>065-074>080-084>089-190900-
SOUTHWEST KANSAS

CITY           SKY/WX    TMP DP  RH WIND       PRES   REMARKS
DODGE CITY     CLOUDY    45  43  93 S16       29.72F
ELKHART          N/A     34  25  70 SW8         N/A
GARDEN CITY    CLOUDY    43  42  97 S13       29.68F
GREAT BEND     CLOUDY    45  43  93 S16       29.76F
LIBERAL        CLEAR     37  32  81 S7        29.69F
PRATT          CLOUDY    42  41  97 S15       29.78F
$$

KSZ066>073-081>083-090>101-190900-
SOUTHEAST KANSAS

CITY           SKY/WX    TMP DP  RH WIND       PRES   REMARKS
CHANUTE        FOG       46  45  96 S7        29.90F VSB 1/2
COFFEYVILLE    CLOUDY    47  45  93 S7        29.91F
HUTCHINSON     CLOUDY    44  41  89 S12       29.81F
MEDICINE LODGE   N/A     45  43  93 SE8       29.80F
NEWTON         CLOUDY    42  39  89 S9        29.84F
PARSONS        CLOUDY    46  46 100 S6        29.91F FOG
WICHITA INTL   CLOUDY    44  40  85 SE10      29.84F
WICHITA JABRA  PTCLDY    40  38  93 S7        29.85F
WICHITA MCCONL CLEAR     40  38  92 S7        29.84F
WINFIELD       MOCLDY    44  42  93 S7        29.88F
$$

KSZ007>012-019>026-033>040-048>060-102>105-190900-
NORTHEAST KANSAS

CITY           SKY/WX    TMP DP  RH WIND       PRES   REMARKS
CONCORDIA      CLOUDY    39  37  92 SE6       29.80F
EMPORIA        CLOUDY    44  41  89 S8        29.87F
LAWRENCE       CLOUDY    42  40  92 E9        29.90F
MANHATTAN      CLOUDY    45  38  76 SE5       29.85F
MARYSVILLE     CLOUDY    39  36  87 SE7       29.84F
OLATHE IND     CLOUDY    42  41  96 SE6       29.91F FOG
OLATHE EXE     CLOUDY    41  41 100 SE5       29.91S FOG
SALINA           N/A    N/A N/A N/A MISG        N/A
TOPEKA BILLARD CLOUDY    41  37  86 NE5       29.89F
TOPEKA FORBES  CLOUDY    43  40  89 SE5       29.88F
$$




USA.gov is the U.S. government's official web portal to all federal, state and local government web resources and services.